Regional Weather Roundup
Issued by NWS

Home | Current Version | Previous Version | Text Only | Print | Product List | Glossary On
Versions: 1 2 3 4 5 6 7 8 9 10 11 12 13 14 15 16 17 18 19 20 21 22 23 24 25 26 27
000
ASPQ40 PGUM 291212
RWRPQ
WEATHER ROUNDUP FOR THE MARIANAS AND MICRONESIA
NATIONAL WEATHER SERVICE TIYAN GU
1000 PM CHST THU JUN 29 2017

GUZ001>004-291300-
MARIANA ISLANDS-

CITY           SKY/WX    TMP DP  RH WIND       PRES   REMARKS
GUAM AIRPORT   CLEAR     77  77 100 NE6       29.89S FOG
ANDERSEN AFB   MOCLDY    77  75  94 NE6       29.90S
ROTA AIRPORT   NOT AVBL
TINIAN AP      NOT AVBL
SAIPAN AP      PTCLDY    81  77  89 NE3       29.91S

$$

PMZ161-291300-
REPUBLIC OF PALAU-

CITY           SKY/WX    TMP DP  RH WIND       PRES   REMARKS
KOROR AP       CLOUDY    77  73  88 SW8       29.82S
KOROR WSO      CLOUDY    79  73  83 SE5       29.84S

$$

PMZ171>174-291300-
FEDERATED STATES OF MICRONESIA-

CITY           SKY/WX    TMP DP  RH WIND       PRES   REMARKS
YAP AIRPORT    CLOUDY    79  77  94 S14       29.81R
CHUUK AP       CLOUDY    79  77  94 VRB5      29.85R
POHNPEI AP     NOT AVBL
POHNPEI WSO    CLOUDY    79  77  94 E6        29.88S
KOSRAE AP      NOT AVBL

$$

PMZ181-291300-
REPUBLIC OF THE MARSHALL ISLANDS-

CITY           SKY/WX    TMP DP  RH WIND       PRES   REMARKS
KWAJALEIN AP   CLEAR     77  75  94 E3        29.90R
MAJURO AP      NOT AVBL
MAJURO WSO     MOCLDY    79  75  89 E7        29.85F

$$





USA.gov is the U.S. government's official web portal to all federal, state and local government web resources and services.